#timestamp,LO_Frequency,Hit 
1498888815.7,286047003.1,N
1498888835.6,286047002.3,N
1498888855.4,286047000.1,N
1498888875.2,286047001.4,N
1498888895.1,286047005.9,N
1498888896.0,286047005.9,N
1498888915.8,286047005.9,N
1498888935.6,286047005.6,N
1498888955.5,286047000.9,N
1498888975.3,286046998.9,N
1498888995.1,286046998.2,N
1498889015.9,286047002.8,N
1498889035.7,286047001.7,N
1498889055.5,286047003.4,N
1498889075.4,286047006.0,N
1498889095.2,286047004.2,N
1498889115.0,286047001.4,N
1498889115.9,286047001.4,N
1498889135.8,286047002.5,N
1498889155.6,286046999.4,N
1498889175.4,286046996.6,N
1498889195.2,286046994.2,N
1498889215.1,286046991.2,N
1498889216.0,286046991.2,N
1498889235.8,286046992.0,N
1498889255.6,286046996.5,N
1498889275.5,286046993.5,N
1498889295.3,286046992.6,N
1498889315.1,286046990.8,N
1498889335.9,286046991.5,N
1498889355.7,286046988.7,N
1498889375.5,286046991.3,N
1498889395.4,286046990.3,N
1498889415.2,286046991.0,N
1498889435.0,286046990.9,N
1498889435.9,286046990.9,N
1498889455.8,286046990.7,N
1498889475.6,286046991.5,N
1498889495.4,286046988.7,N
1498889515.2,286046989.2,N
1498889535.1,286046991.8,N
1498889536.0,286046991.8,N
1498889555.8,286046993.4,N
1498889575.6,286046991.9,N
1498889595.5,286046991.4,N
1498889615.3,286046990.8,N
1498889635.1,286046992.9,N
1498889655.9,286046992.1,N
1498889675.7,286046994.4,N
1498889695.5,286046993.8,N
1498889715.4,286046992.2,N
1498889735.2,286046993.5,N
1498889755.0,286046997.0,N
1498889755.9,286046997.0,N
1498889775.8,286046995.3,N
1498889795.6,286046995.3,N
1498889815.4,286046997.4,N
1498889835.3,286046999.2,N
1498889855.1,286046999.1,N
1498889856.0,286046999.1,N
1498889875.8,286047000.6,N
1498889895.6,286047000.9,N
1498889915.5,286047003.0,N
1498889935.3,286047004.6,N
1498889955.1,286047006.3,N
1498889975.9,286047005.6,N
1498889995.7,286047004.5,N
1498890015.5,286047009.2,N
1498890035.4,286047008.9,N
1498890055.2,286047005.0,N
1498890075.0,286047006.9,N
1498890075.9,286047006.9,N
1498890095.8,286047007.8,N
1498890115.6,286047008.2,N
1498890135.4,286047006.5,N
1498890155.3,286047004.5,N
1498890175.1,286047005.6,N
1498890176.0,286047005.6,N
1498890195.8,286047004.3,N
1498890215.6,286047000.3,N
1498890235.5,286047007.8,N
1498890255.3,286047012.5,N
1498890275.1,286047012.7,N
1498890295.9,286047012.9,N
1498890315.7,286047012.0,N
1498890335.5,286047009.6,N
1498890355.4,286047009.8,N
1498890375.2,286047006.2,N
1498890395.0,286047006.6,N
1498890395.9,286047006.6,N
1498890415.8,286047008.8,N
1498890435.6,286047009.1,N
1498890455.4,286047009.9,N
1498890475.3,286047010.1,N
1498890495.1,286047006.5,N
1498890496.0,286047006.5,N
1498890515.8,286047007.2,N
1498890535.7,286047006.5,N
1498890555.5,286047008.7,N
1498890575.3,286047012.4,N
1498890595.1,286047011.2,N
1498890615.9,286047013.4,N
1498890635.7,286047020.1,N
1498890655.5,286047024.8,N
1498890675.4,286047022.5,N
1498890695.2,286047019.8,N
1498890715.0,286047017.9,N
1498890715.9,286047017.9,N
1498890735.8,286047021.1,N
1498890755.6,286047024.6,N
1498890775.4,286047027.9,N
1498890795.3,286047022.7,N
1498890815.1,286047019.1,N
1498890816.0,286047019.1,N
1498890835.8,286047018.6,N
1498890855.7,286047020.9,N
1498890875.5,286047022.5,N
1498890895.3,286047019.3,N
1498890915.1,286047018.2,N
1498890935.9,286047014.1,N
1498890955.7,286047011.8,N
1498890975.5,286047009.2,N
1498890995.4,286047006.4,N
1498891015.2,286047006.4,N
1498891035.0,286047006.6,N
1498891035.9,286047006.6,N
1498891055.8,286047009.8,N
1498891075.6,286047011.4,N
1498891095.4,286047016.2,N
1498891115.3,286047014.3,N
1498891135.1,286047014.3,N
1498891136.0,286047014.3,N
1498891155.8,286047015.9,N
1498891175.7,286047016.8,N
1498891195.5,286047015.2,N
1498891215.3,286047011.1,N
1498891235.1,286047009.6,N
1498891255.9,286047009.9,N
1498891275.7,286047008.0,N
1498891295.5,286047006.2,N
1498891315.4,286047009.6,N
1498891335.2,286047009.9,N
1498891355.0,286047011.5,N
1498891355.9,286047011.5,N
1498891375.8,286047018.4,N
1498891395.6,286047020.2,N
1498891415.4,286047018.1,N
1498891435.3,286047013.0,N
1498891455.1,286047015.1,N
1498891456.0,286047015.1,N
1498891475.8,286047017.2,N
1498891495.7,286047021.3,N
1498891515.5,286047022.3,N
1498891535.3,286047017.6,N
1498891555.2,286047014.3,N
1498891575.9,286047014.6,N
1498891595.7,286047018.6,N
1498891615.5,286047023.5,N
1498891635.4,286047019.0,N
1498891655.2,286047016.2,N
1498891675.0,286047018.1,N
1498891675.9,286047018.1,N
1498891695.8,286047016.6,N
1498891715.6,286047015.5,N
1498891735.4,286047018.4,N
1498891755.3,286047017.6,N
1498891775.1,286047015.7,N
1498891795.8,286047018.3,N
1498891815.7,286047019.1,N
1498891835.5,286047018.5,N
1498891855.3,286047014.2,N
1498891875.2,286047015.9,N
1498891895.9,286047016.0,N
1498891915.7,286047017.7,N
1498891935.5,286047018.4,N
1498891955.4,286047018.2,N
1498891975.2,286047015.6,N
1498891995.0,286047012.3,N
1498891995.9,286047012.3,N
1498892015.8,286047012.3,N
1498892035.6,286047010.6,N
1498892055.4,286047009.0,N
1498892075.3,286047006.6,N
1498892095.1,286047006.8,N
1498892115.8,286047003.5,N
1498892135.7,286047004.3,N
1498892155.5,286047007.5,N
1498892175.3,286047003.3,N
1498892195.2,286047005.6,N
1498892215.9,286047004.9,N
1498892235.7,286047004.9,N
1498892255.6,286047005.8,N
1498892275.4,286047006.9,N
1498892295.2,286047008.7,N
1498892315.0,286047005.5,N
1498892316.0,286047005.5,N
1498892335.8,286047005.9,N
1498892355.6,286047006.8,N
1498892375.4,286047006.7,N
1498892395.3,286047006.2,N
